Nausori, Fiji

6:46 AM +12 on May 26, 2017 (GMT +1200)
Nausori International

Weather History for NFNA - March, 2013

Change the Weather History Date:

Monday, March 25, 2013

  Actual Average Record
Temperature  
Mean Temperature 80 °F -  
Max Temperature 85 °F 85 °F - ()
Min Temperature 74 °F 74 °F - ()
Cooling Degree Days 14    
Growing Degree Days 30 (Base 50)    
Moisture  
Dew Point 76 °F    
Average Humidity 90    
Maximum Humidity 100    
Minimum Humidity 71    
Precipitation  
Precipitation 0.35 in 0.51 in - ()
Sea Level Pressure  
Sea Level Pressure 29.78 in    
Wind  
Wind Speed 1 mph ()    
Max Wind Speed 7 mph    
Max Gust Speed -    
Visibility 7.3 miles    
Events Rain , Thunderstorm    
T = Trace of Precipitation, MM = Missing Value Source: Averaged Metar Reports

Daily Weather History Graph

Daily Weather History Graph

Search for Another Location

Airport or City:

Trip Planner

Search our weather history database for the weather conditions in past years. The results will help you decide how hot, cold, wet, or windy it might be!

Date:

Astronomy

Mar. 25, 2013 Rise Set
Actual Time 6:10 AM +12 6:12 PM +12
Civil Twilight 5:48 AM +12 6:34 PM +12
Nautical Twilight 5:23 AM +12 6:59 PM +12
Astronomical Twilight 4:58 AM +12 7:24 PM +12
Moon 4:28 PM +12 3:48 AM +12
Length of Visible Light 12h 45m
Length of Day
12h 02m
Waxing Gibbous, 93% of the Moon is Illuminated
Mar 25
Waxing Gibbous
Mar 27
Full
Apr 3
Last Quarter
Apr 10
New
Apr 19
First Quarter

Hourly Weather History & Observations

Time (+12) Temp. Heat Index Dew Point Humidity Pressure Visibility Wind Dir Wind Speed Gust Speed Precip Events Conditions
12:00 AM 76 °F - 76 °F 100% 29.83 in 12 mi North 4.6 mph - - Rain , Thunderstorm Thunderstorms and Rain
12:00 AM 77.0 °F - 77.0 °F 100% 29.83 in 6.2 mi North 4.6 mph - N/A Rain , Thunderstorm Light Thunderstorms and Rain
2:00 AM 75.2 °F - 75.2 °F 100% 29.77 in 6.2 mi Calm Calm - N/A   Mostly Cloudy
3:00 AM 76 °F - 76 °F 100% 29.77 in 12 mi Calm Calm - -   Mostly Cloudy
3:00 AM 75.2 °F - 75.2 °F 100% 29.74 in 6.2 mi Calm Calm - N/A   Mostly Cloudy
4:00 AM 77.0 °F - 75.2 °F 94% 29.74 in 6.2 mi Calm Calm - N/A Rain Light Rain Showers
5:00 AM 77.0 °F - 75.2 °F 94% 29.77 in 6.2 mi NNE 6.9 mph - N/A Rain Light Rain Showers
6:00 AM 76 °F - 75 °F 96% 29.79 in 12 mi WSW 5.8 mph - - Rain Light Rain Showers
6:00 AM 75.2 °F - 75.2 °F 100% 29.77 in 6.2 mi WSW 5.8 mph - N/A Rain Light Rain Showers
7:00 AM 75.2 °F - 75.2 °F 100% 29.80 in 6.2 mi Calm Calm - N/A   Mostly Cloudy
8:00 AM 77.0 °F - 75.2 °F 94% 29.80 in 6.2 mi Calm Calm - N/A   Mostly Cloudy
9:00 AM 80 °F - 76 °F 85% 29.82 in 31 mi Calm Calm - -   Partly Cloudy
9:00 AM 80.6 °F 87.1 °F 77.0 °F 89% 29.80 in 6.2 mi Calm Calm - N/A   Mostly Cloudy
10:00 AM 82.4 °F 89.5 °F 75.2 °F 79% 29.80 in 6.2 mi Calm Calm - N/A   Mostly Cloudy
11:00 AM 84.2 °F 94.1 °F 77.0 °F 79% 29.80 in 6.2 mi Calm Calm - N/A   Mostly Cloudy
12:00 PM 85 °F - 77 °F 71% 29.79 in 31 mi Calm Calm - -   Partly Cloudy
12:00 PM 84.2 °F 94.1 °F 77.0 °F 79% 29.77 in 6.2 mi Calm Calm - N/A   Scattered Clouds
1:00 PM 84.2 °F 92.3 °F 75.2 °F 74% 29.74 in 6.2 mi Calm Calm - N/A   Scattered Clouds
2:00 PM 82.4 °F 90.9 °F 77.0 °F 84% 29.74 in 6.2 mi Calm Calm - N/A   Mostly Cloudy
3:00 PM 83 °F - 76 °F 74% 29.74 in 12 mi Calm Calm - - Rain Light Rain Showers
3:00 PM 84.2 °F 92.3 °F 75.2 °F 74% 29.74 in 28.0 mi Calm Calm - N/A   Mostly Cloudy
4:00 PM 82.4 °F 90.9 °F 77.0 °F 84% 29.71 in 6.2 mi Variable 3.5 mph - N/A   Mostly Cloudy
6:00 PM 81 °F - 78 °F 88% 29.75 in 31 mi Calm Calm - -   Partly Cloudy
6:00 PM 80.6 °F 88.1 °F 78.8 °F 94% 29.74 in 6.2 mi Calm Calm - N/A   Mostly Cloudy
7:00 PM 80.6 °F 88.1 °F 78.8 °F 94% 29.77 in 6.2 mi Calm Calm - N/A   Mostly Cloudy
8:00 PM 78.8 °F - 77.0 °F 94% 29.80 in 6.2 mi Calm Calm - N/A   Mostly Cloudy
9:00 PM 77 °F - 77 °F 99% 29.81 in 12 mi Calm Calm - -   Partly Cloudy
9:00 PM 77.0 °F - 77.0 °F 100% 29.80 in 6.2 mi Calm Calm - N/A   Mostly Cloudy
10:00 PM 77.0 °F - 77.0 °F 100% 29.80 in 6.2 mi Calm Calm - N/A   Mostly Cloudy
11:00 PM 77.0 °F - 75.2 °F 94% 29.80 in 6.2 mi Calm Calm - N/A   Scattered Clouds